SCP
0 0 0 0 0 0 0 0 0 0 0 0 0 0 0 0 0 0 0 0 0 0 0 0 0 0 0 0 0 0 0 0 0 0 0 0 0 0 0 0 0 0 0 0
0 0 0 0 0 0 0 0 0 0 0 0 0 0 0 0 0 0 0 0 0 0 0 0 0 0 0 0 0 0 0 0 0 0 0 0 0 0 0 0 0 0 0 0
0 0 0 0 0 0 0 0 0 0 0 0 0 0 0 0 0 0 0 0 0 0 0 0 0 0 0 0 0 0 0 0 0 0 0 0 0 0 0 0 0 0 0 0
0 0 0 0 0 0 0 0 0 0 0 0 0 0 0 0 0 0 0 0 0 0 0 0 0 0 0 0 0 0 0 0 0 0 0 0 0 0 0 0 0 0 0 0
0 0 0 0 0 0 0 0 0 0 0 0 0 0 0 0 0 0 0 0 0 0 0 0 0 0 0 0 0 0 0 0 0 0 0 0 0 0 0 0 0 0 0 0
0 0 0 0 0 0 0 0 0 0 0 0 0 0 0 0 0 0 0 0 0 0 0 0 0 0 0 0 0 0 0 0 0 0 0 0 0 0 0 0 0 0 0 0
0 0 0 0 0 0 0 0 0 0 0 0 0 0 0 0 0 0 0 0 0 0 0 0 0 0 0 0 0 0 0 0 0 0 0 0 0 0 0 0 0 0 0 0
0 0 0 0 0 0 0 0 0 0 0 0 0 0 0 0 0 0 0 0 0 0 0 0 0 0 0 0 0 0 0 0 0 0 0 0 0 0 0 0 0 0 0 0
0 0 0 0 0 0 0 0 0 0 0 0 0 0 0 0 0 0 0 0 0 0 0 0 0 0 0 0 0 0 0 0 0 0 0 0 0 0 0 0 0 0 0 0
0 0 0 0 0 0 0 0 0 0 0 0 0 0 0 0 0 0 0 0 0 0 0 0 0 0 0 0 0 0 0 0 0 0 0 0 0 0 0 0 0 0 0 0
0 0 0 0 -0 -0 -0 0 0 0 0 0 0 0 0 0 0 0 0 0 0 0 0 0 0 0 0 0 0 0 0 0 0 0 0 0 0 0 0 0 0 0 0 0
0 0 0 0 -0 -0 -0 -0 0 0 0 0 0 0 0 0 0 0 0 0 0 0 0 0 0 0 0 0 0 0 0 0 0 0 0 0 0 0 0 0 0 0 0 0
0 0 0 0 0 0 0 0 0 0 0 0 0 0 0 0 0 0 0 0 0 0 0 0 0 0 0 0 0 0 0 0 0 0 0 0 0 0 0 0 0 0 0 0
0 0 0 0 0 0 0 0 0 0 0 0 0 0 0 0 0 0 0 0 0 0 0 0 0 0 0 0 0 0 0 0 0 0 0 0 0 0 0 0 0 0 0 0
0 0 0 0 0 0 0 0 0 0 0 0 0 0 0 0 0 0 0 -0 0 0 0 0 0 0 0 0 0 0 0 0 0 0 0 0 0 0 0 0 0 0 0 0
0 0 0 0 0 0 0 0 0 0 0 0 0 0 0 0 0 0 -0 -0 0 0 0 0 0 0 0 0 0 0 0 0 0 0 0 0 0 0 0 0 0 0 0 0
0 0 0 0 0 0 0 0 0 0 0 0 0 0 0 0 0 0 0 0 0 0 0 0 0 0 0 0 0 0 0 0 0 0 0 0 0 0 0 0 0 0 0 0
0 0 0 0 0 0 0 0 0 0 0 0 0 0 0 0 0 0 0 0 0 0 0 0 0 0 0 0 0 0 0 0 0 0 0 0 0 0 0 0 0 0 0 0
0 0 0 0 0 0 0 0 0 0 0 0 0 0 0 0 0 0 0 0 0 0 0 0 0 0 0 0 0 0 0 0 0 0 0 0 0 0 0 0 0 0 0 0
0 0 0 0 0 0 0 0 0 0 0 0 0 0 0 0 0 0 0 0 0 0 0 0 0 0 0 0 0 0 0 0 0 0 0 0 0 0 -0 0 0 0 0 0
0 0 0 0 0 0 0 0 0 0 0 0 0 0 0 0 0 0 0 0 0 0 0 0 0 0 0 0 0 0 0 0 0 0 0 0 0 0 -0 0 0 0 0 0
0 0 0 0 0 0 0 0 0 0 0 0 0 0 0 0 0 0 0 0 0 0 0 0 0 0 0 0 0 0 0 0 0 0 0 0 0 0 0 0 0 0 0 0
0 0 0 0 0 0 0 0 0 0 0 0 0 0 0 0 0 0 0 0 0 0 0 0 0 0 0 0 0 0 0 0 0 0 0 0 0 0 0 0 0 0 0 0
0 0 0 0 0 0 0 0 0 0 0 0 0 0 0 0 0 0 0 0 0 0 0 0 0 0 0 0 0 0 0 0 0 0 0 0 0 0 0 0 0 0 -0 -0
0 0 0 0 0 0 0 0 0 0 0 0 0 0 0 0 0 0 0 0 0 0 0 0 0 0 0 0 0 0 0 0 0 0 0 0 0 0 0 0 0 -0 -0 -0
0 0 0 0 0 0 0 0 0 0 0 0 0 0 0 0 0 0 0 0 0 0 0 0 0 -0 0 0 0 0 0 0 0 0 0 0 0 0 0 0 0 -0 -0 -0
0 0 0 0 0 0 0 0 0 0 0 0 0 0 0 0 0 0 0 0 0 0 0 0 -0 -0 -0 0 0 0 0 0 0 0 0 0 0 0 0 0 -0 -0 0 0
Wind_Speed
5 6 4 4 6 5 5 7 8 9 8 11 11 11 10 9 8 9 10 12 13 13 11 10 10 9 9 9 8 8 8 8 8 7 7 6 6 6 6 5 6 6 5 5
4 4 2 5 7 7 5 4 4 3 5 7 6 6 6 7 9 10 12 13 13 12 12 12 12 11 9 9 9 8 9 8 8 7 7 6 6 6 6 6 5 5 5 6
4 6 4 4 5 3 2 4 2 0 5 3 2 7 9 9 10 12 12 12 13 14 14 14 13 12 12 10 9 9 9 8 8 7 7 7 7 6 6 6 6 6 6 6
1 3 3 6 2 2 5 5 5 2 4 2 3 5 5 5 9 11 12 12 13 12 12 11 11 10 10 9 9 9 9 8 8 8 8 7 6 7 7 5 5 5 6 7
2 1 6 4 4 3 2 3 7 6 7 6 4 5 4 2 2 8 11 11 12 12 12 11 11 11 10 9 9 9 9 9 9 8 8 7 7 7 6 5 5 6 5 7
3 3 5 5 6 5 4 1 5 6 8 9 8 4 3 6 3 1 4 6 7 8 8 9 10 10 10 10 9 11 11 10 8 8 8 8 9 7 6 6 7 6 7 7
4 3 6 4 7 5 3 3 3 3 5 7 4 1 4 5 4 2 1 2 5 7 8 9 8 9 9 8 10 10 8 7 7 7 8 8 7 6 6 6 6 6 7 8
2 2 6 3 2 2 5 3 2 1 4 5 3 5 7 7 6 6 6 3 2 4 4 4 6 9 9 9 8 6 6 6 6 6 6 6 6 6 6 6 7 7 7 8
5 6 3 2 3 3 3 3 2 3 4 5 4 5 6 6 7 7 6 5 3 2 2 1 2 6 8 7 4 4 4 4 4 4 5 4 5 6 5 5 6 6 6 7
2 3 3 4 3 2 3 3 2 4 5 6 5 4 5 6 6 6 6 5 5 5 4 2 0 2 4 3 4 4 4 4 3 3 4 4 4 5 5 5 6 7 7 8
2 2 1 4 4 2 3 4 7 8 8 7 7 6 6 6 6 5 6 6 6 6 5 4 3 2 0 2 4 4 3 3 3 4 4 5 5 5 7 7 8 9 8 8
8 9 6 5 3 4 7 7 7 9 9 8 7 7 7 6 5 5 6 6 7 8 7 6 6 5 4 1 2 3 2 2 3 3 3 4 5 7 10 12 15 16 17 14
6 8 5 4 4 6 8 8 9 9 9 8 7 7 7 6 5 6 7 7 6 6 5 5 6 6 6 4 2 1 1 2 3 3 4 4 5 6 8 9 12 14 16 16
11 11 9 7 7 8 10 10 10 10 8 7 6 6 6 6 6 7 6 4 4 5 5 5 5 5 6 4 3 3 3 4 4 4 4 5 5 6 6 7 8 8 10 12
9 10 9 9 9 8 8 9 10 8 7 7 6 6 5 5 5 4 4 4 5 5 5 4 5 5 5 4 3 3 3 3 4 4 5 5 6 6 6 8 8 8 7 8
9 10 10 11 10 9 9 9 8 6 5 5 5 4 4 3 3 3 3 3 4 3 2 2 3 4 4 3 3 3 3 7 7 5 5 5 6 6 6 7 7 7 7 7
9 8 8 8 8 7 7 6 5 4 4 3 2 2 3 3 3 3 2 2 1 1 2 2 3 4 2 2 2 2 3 5 9 6 5 6 6 6 7 7 7 7 7 8
8 7 7 7 7 6 6 5 5 4 3 2 2 2 2 2 2 3 4 3 3 3 4 4 4 3 2 2 2 3 3 4 5 6 6 6 6 6 6 6 7 8 7 7
9 8 8 7 7 6 4 3 3 2 1 1 1 2 3 3 4 4 4 3 3 4 6 6 7 5 4 5 4 3 4 5 5 6 6 7 7 6 6 6 7 7 7 6
8 7 7 7 6 5 4 2 2 2 3 3 2 3 4 5 5 5 4 4 5 6 7 7 5 4 5 6 6 4 5 5 6 6 6 5 6 6 7 7 7 7 7 6
7 7 6 5 5 4 3 3 3 4 4 4 3 4 5 6 5 4 3 5 7 7 6 7 4 4 4 5 6 4 5 5 5 5 6 6 6 6 6 7 7 7 6 6
5 4 4 3 3 3 4 3 4 4 5 5 5 5 5 6 6 5 5 5 6 8 5 3 3 5 6 7 4 4 5 5 5 5 5 5 6 6 7 7 7 6 6 5
2 2 2 2 2 3 5 5 5 5 5 6 6 6 5 5 4 3 5 5 4 5 4 3 5 8 9 5 3 4 4 5 5 5 5 5 6 6 7 7 6 6 5 5
1 2 3 3 3 4 5 6 6 5 5 5 5 4 3 3 3 3 3 5 6 5 3 5 7 8 6 3 3 3 4 4 4 5 5 5 5 6 6 6 6 6 5 5
3 3 4 4 4 4 4 5 4 5 4 3 4 5 3 2 3 4 4 5 6 5 4 5 6 6 3 3 3 3 3 3 4 4 4 5 5 6 6 6 5 5 5 4
3 3 3 3 2 2 2 2 2 3 3 3 4 4 4 4 4 4 4 5 6 5 3 3 3 4 3 3 3 3 3 4 4 4 5 5 6 6 6 6 7 5 4 4
3 3 2 3 3 2 2 2 2 3 3 3 4 5 5 4 4 4 5 4 3 3 3 3 3 3 3 3 3 3 4 4 4 5 5 5 5 6 6 7 5 4 4 4
Wind_Direction
229 227 203 239 264 255 226 206 204 232 220 224 210 202 199 192 183 172 170 171 173 173 172 172 172 175 176 176 175 169 168 177 190 194 195 197 202 208 213 215 219 219 224 233
293 277 281 286 281 272 263 256 235 233 244 242 212 190 181 176 167 168 174 177 175 173 172 175 178 180 178 178 177 168 173 186 191 190 193 199 206 212 216 223 227 224 226 231
283 307 3 291 268 257 71 24 43 4 273 303 172 181 182 176 168 170 174 175 177 179 181 183 184 180 182 182 175 173 180 187 188 190 197 206 209 209 216 221 224 226 230 232
283 1 263 249 305 60 100 52 31 19 326 329 237 209 186 173 170 174 175 179 184 186 188 188 184 182 180 173 173 180 187 193 194 194 202 208 208 214 218 216 218 226 233 237
144 233 275 303 348 5 82 42 1 16 4 357 6 53 23 341 189 181 182 184 188 189 187 185 185 182 172 176 180 185 195 201 202 197 201 205 211 219 218 214 223 226 231 236
153 177 235 263 313 314 99 46 334 21 28 12 30 56 309 323 325 210 179 179 181 180 172 181 190 176 174 183 186 198 204 206 202 198 201 208 214 216 214 214 225 230 238 238
177 205 251 270 313 351 122 228 287 22 49 39 40 244 283 324 339 342 60 181 164 160 175 192 180 166 178 184 201 208 203 198 199 202 206 212 217 218 219 224 232 237 243 247
139 198 249 304 7 152 194 206 218 116 73 64 34 356 7 18 13 11 20 19 112 147 181 184 166 167 178 196 206 192 182 190 200 207 213 215 217 228 229 228 237 245 249 258
181 213 251 285 227 213 167 184 207 129 107 92 51 19 19 27 23 17 20 22 33 93 112 78 163 172 187 208 187 166 170 189 206 214 223 222 220 231 237 234 238 247 247 254
154 244 264 274 248 201 185 174 136 98 93 94 93 69 41 39 33 26 23 23 32 54 59 41 66 180 203 189 152 155 179 200 208 219 238 244 240 236 238 243 246 251 250 252
154 193 282 278 249 193 142 108 86 76 80 88 89 72 59 51 38 31 29 30 45 51 45 22 22 28 32 158 153 168 191 211 225 233 243 255 257 249 248 246 242 243 250 246
191 187 176 213 219 139 113 100 96 93 81 72 77 73 63 53 44 43 41 38 42 41 39 32 33 24 6 9 148 167 209 245 255 258 262 265 273 282 266 260 266 256 252 250
142 142 135 108 92 103 102 98 92 89 86 75 63 66 65 55 45 46 44 44 46 45 42 39 34 22 2 0 41 111 248 263 268 271 272 273 273 274 286 290 279 270 263 258
105 104 90 86 89 87 93 93 89 81 75 73 66 59 57 52 45 45 40 37 42 44 38 35 28 9 350 358 12 352 317 293 285 274 273 273 273 272 271 280 288 286 278 267
90 101 112 105 93 88 88 86 79 72 66 58 54 52 51 52 46 39 30 36 43 37 25 24 19 349 340 359 4 346 331 313 298 288 282 279 279 277 278 279 277 277 280 282
92 86 90 91 90 86 82 81 80 72 67 60 48 41 43 51 43 28 23 41 47 24 351 353 342 319 328 352 352 337 321 317 317 303 295 293 290 287 286 283 279 275 273 271
96 93 94 91 86 82 80 83 87 81 68 58 43 30 37 37 20 354 328 325 324 287 274 273 283 298 324 346 340 312 306 308 313 312 299 292 290 288 286 284 282 277 274 271
99 104 104 103 100 89 75 70 70 68 61 38 29 23 9 342 304 283 279 286 309 309 284 264 260 266 279 282 280 280 286 290 294 295 294 293 293 290 288 289 289 287 283 281
91 87 82 82 86 85 80 72 64 50 17 358 347 304 278 272 267 267 271 282 287 283 276 268 264 262 267 268 274 270 281 289 292 293 293 296 299 297 295 290 286 285 282 276
76 73 71 68 66 69 62 43 21 344 316 307 300 298 292 283 276 274 272 268 254 246 255 262 262 262 266 272 277 272 279 285 290 295 296 295 298 299 298 296 292 290 285 276
63 62 61 58 48 37 23 4 346 319 306 301 287 274 271 273 274 272 267 276 275 271 272 273 265 264 271 275 281 277 279 284 289 292 296 297 298 299 298 297 296 292 285 279
57 52 46 39 26 353 329 321 311 302 300 294 284 279 280 282 285 286 273 259 271 287 287 276 271 276 283 286 280 280 283 287 291 295 298 300 301 300 299 299 297 296 294 290
41 30 7 342 318 302 308 308 303 297 291 287 285 286 283 280 280 282 292 290 290 294 288 277 284 292 295 293 285 284 289 294 297 299 301 302 302 300 299 302 304 302 301 302
329 311 298 294 307 315 306 298 301 302 303 303 305 307 306 311 313 295 274 301 310 304 288 289 298 302 306 302 294 291 294 297 299 301 303 304 308 310 309 308 308 308 310 313
296 297 300 307 306 290 283 298 321 331 337 335 331 332 328 302 287 296 302 307 312 312 304 308 319 322 323 316 306 303 303 302 307 309 312 317 319 316 313 314 319 320 319 324
305 298 291 283 277 283 311 345 344 333 338 330 320 318 316 313 311 314 316 317 317 317 321 324 330 335 333 325 323 326 327 329 332 331 326 323 322 321 321 324 328 333 340 349
339 338 341 344 341 346 353 351 336 322 316 312 306 305 308 313 317 319 319 319 327 338 342 343 348 348 342 341 345 349 349 345 338 333 329 324 323 323 325 328 333 348 0 7